Honolulu, HI

2:10 AM HST on November 22, 2017 (GMT -1000)
Honolulu International

Weather History for PHNL - March, 2014

Change the Weather History Date:

Tuesday, March 25, 2014

  Actual Average Record
Temperature  
Mean Temperature 77 °F 75 °F  
Max Temperature 85 °F 82 °F 88 °F (1983)
Min Temperature 69 °F 69 °F 56 °F (1955)
Degree Days  
Heating Degree Days 0 0  
Month to date heating degree days 0 0  
Since 1 July heating degree days 0 0  
Cooling Degree Days 12 10  
Month to date cooling degree days 239 233  
Year to date cooling degree days 758 715  
Growing Degree Days 26 (Base 50)    
Moisture  
Dew Point 63 °F    
Average Humidity 64    
Maximum Humidity 79    
Minimum Humidity 48    
Precipitation  
Precipitation 0.00 in 0.06 in 1.51 in (1971)
Month to date precipitation 2.37 1.68  
Year to date precipitation 6.05 5.98  
Snow  
Snow 0.00 in - - ()
Month to date snowfall 0.0  
Since 1 July snowfall 0.0  
Snow Depth 0.00 in    
Sea Level Pressure  
Sea Level Pressure 30.11 in    
Wind  
Wind Speed 11 mph (NE)    
Max Wind Speed 22 mph    
Max Gust Speed 28 mph    
Visibility 10 miles    
Events Rain    
T = Trace of Precipitation, MM = Missing Value Source: NWS Daily Summary

Daily Weather History Graph

Daily Weather History Graph

Search for Another Location

Airport or City:

Trip Planner

Search our weather history database for the weather conditions in past years. The results will help you decide how hot, cold, wet, or windy it might be!

Date:

Astronomy

Mar. 25, 2014 Rise Set
Actual Time 6:30 AM HST 6:44 PM HST
Civil Twilight 6:08 AM HST 7:06 PM HST
Nautical Twilight 5:42 AM HST 7:32 PM HST
Astronomical Twilight 5:16 AM HST 7:58 PM HST
Moon 2:26 AM HST (3/25) 2:01 PM HST (3/25)
Length of Visible Light 12h 57m
Length of Day
12h 13m
Waning Crescent, 29% of the Moon is Illuminated
Mar 25
Waning Crescent
Mar 30
New
Apr 6
First Quarter
Apr 14
Full
Apr 21
Last Quarter

Hourly Weather History & Observations

Time (HST) Temp. Heat Index Dew Point Humidity Pressure Visibility Wind Dir Wind Speed Gust Speed Precip Events Conditions
12:53 AM 73.0 °F - 60.1 °F 64% 30.15 in 10.0 mi NE 8.1 mph - N/A   Partly Cloudy
1:53 AM 72.0 °F - 61.0 °F 68% 30.13 in 10.0 mi NNE 5.8 mph 17.3 mph N/A   Partly Cloudy
2:53 AM 72.0 °F - 61.0 °F 68% 30.11 in 10.0 mi NNE 10.4 mph - N/A   Partly Cloudy
3:53 AM 72.0 °F - 61.0 °F 68% 30.09 in 10.0 mi NE 11.5 mph - N/A   Partly Cloudy
4:53 AM 71.1 °F - 61.0 °F 70% 30.09 in 10.0 mi Calm Calm - N/A   Clear
5:53 AM 72.0 °F - 63.0 °F 73% 30.12 in 10.0 mi Variable 5.8 mph - N/A   Scattered Clouds
6:53 AM 72.0 °F - 64.9 °F 78% 30.13 in 10.0 mi Calm Calm - N/A   Scattered Clouds
7:53 AM 75.0 °F - 64.0 °F 69% 30.14 in 10.0 mi ENE 8.1 mph - N/A   Scattered Clouds
8:53 AM 77.0 °F - 63.0 °F 62% 30.15 in 10.0 mi NE 8.1 mph 19.6 mph N/A   Scattered Clouds
9:53 AM 80.1 °F 81.2 °F 62.1 °F 54% 30.14 in 10.0 mi ENE 17.3 mph - N/A   Scattered Clouds
10:53 AM 81.0 °F 81.9 °F 62.1 °F 52% 30.13 in 10.0 mi ENE 17.3 mph 23.0 mph N/A   Scattered Clouds
11:53 AM 82.9 °F 84.0 °F 63.0 °F 51% 30.11 in 10.0 mi ENE 18.4 mph 25.3 mph N/A   Scattered Clouds
12:53 PM 82.9 °F 84.0 °F 63.0 °F 51% 30.08 in 10.0 mi ENE 13.8 mph 24.2 mph N/A   Scattered Clouds
1:53 PM 84.0 °F 84.9 °F 63.0 °F 49% 30.07 in 10.0 mi ENE 18.4 mph 25.3 mph N/A   Scattered Clouds
2:53 PM 82.9 °F 83.7 °F 62.1 °F 49% 30.04 in 10.0 mi ENE 18.4 mph 25.3 mph N/A   Scattered Clouds
3:53 PM 82.0 °F 83.0 °F 62.1 °F 51% 30.04 in 10.0 mi ENE 16.1 mph 24.2 mph N/A   Scattered Clouds
4:53 PM 80.1 °F 81.2 °F 62.1 °F 54% 30.04 in 10.0 mi ENE 11.5 mph 20.7 mph N/A   Scattered Clouds
5:53 PM 79.0 °F - 62.1 °F 56% 30.06 in 10.0 mi NE 13.8 mph - N/A   Scattered Clouds
6:53 PM 77.0 °F - 63.0 °F 62% 30.08 in 10.0 mi East 12.7 mph - N/A   Scattered Clouds
7:53 PM 75.9 °F - 64.0 °F 67% 30.10 in 10.0 mi ENE 10.4 mph - N/A   Scattered Clouds
8:53 PM 75.9 °F - 64.9 °F 69% 30.12 in 10.0 mi NE 10.4 mph - N/A   Scattered Clouds
9:53 PM 75.0 °F - 64.9 °F 71% 30.14 in 10.0 mi ENE 9.2 mph - N/A   Scattered Clouds
10:53 PM 75.0 °F - 66.0 °F 73% 30.14 in 10.0 mi NNE 6.9 mph - N/A   Mostly Cloudy
11:15 PM 73.4 °F - 69.8 °F 88% 30.14 in 4.0 mi East 8.1 mph - 0.06 in Rain Heavy Rain
11:23 PM 71.6 °F - 69.8 °F 94% 30.14 in 4.0 mi ENE 4.6 mph - 0.08 in Rain Light Rain
11:53 PM 73.0 °F - 69.1 °F 87% 30.14 in 9.0 mi NNE 5.8 mph - 0.08 in Rain Light Rain